Location: Newark
(58.8333°N, 23.5833°E)
Time: 01:24:20
(UTC+00:00)

METEOR M2 - Pass Details

Date: 08 December 2019
Orbit: 819 x 827 km, 98.5° (Epoch: 28 January)

Event Time Altitude Azimuth Distance (km) Brightness Sun altitude
Exits shadow 15:17:16 15° 49° (NE) 2,107 ? -11.9°
Maximum altitude 15:18:07 15° 38° (NE) 2,077 ? -12.0°
Drops below altitude 10° 15:21:07 10° 4° (N) 2,433 ? -12.4°
Sets 15:24:25 0° 343° (NNW) 3,369 ? -12.8°
